Weather History for Mount Holly, NJ

Change the Weather History Date:

Wednesday, December 4, 2013

  Actual Average (KWRI) Record (KWRI)
Temperature  
Mean Temperature 42 °F -  
Max Temperature 53 °F 48 °F 71 °F (1998)
Min Temperature 32 °F 30 °F 15 °F (2002)
Degree Days  
Heating Degree Days 22    
Moisture  
Dew Point 39 °F    
Average Humidity 80    
Maximum Humidity 96    
Minimum Humidity 61    
Precipitation  
Precipitation 0.00 in - - ()
Sea Level Pressure  
Sea Level Pressure 30.09 in    
Wind  
Wind Speed 1 mph (NE)    
Max Wind Speed 5 mph    
Max Gust Speed -    
Visibility 7 miles    
Events      
Averages and records for this station are not official NWS values.
T = Trace of Precipitation, MM = Missing Value Source: NWS Daily Summary

Daily Weather History Graph

Daily Weather History Graph

Search for Another Location

Airport:

Trip Planner

Search our weather history database for the weather conditions in past years. The results will help you decide how hot, cold, wet, or windy it might be!

Date:

Astronomy

Dec. 04, 2013 Rise Set
Actual Time 7:04 AM EST 4:34 PM EST
Civil Twilight 6:34 AM EST 5:04 PM EST
Nautical Twilight 6:01 AM EST 5:38 PM EST
Astronomical Twilight 5:28 AM EST 6:10 PM EST
Moon 8:30 AM EST (12/4) 6:41 PM EST (12/4)
Length of Visible Light 10h 29m
Length of Day
9h 29m
Waxing Crescent, 4% of the Moon is Illuminated
Dec 4
Waxing Crescent
Dec 9
First Quarter
Dec 17
Full
Dec 25
Last Quarter
Jan 1
New

Hourly Weather History & Observations

Time (EST) Temp. Dew Point Humidity Pressure Visibility Wind Dir Wind Speed Gust Speed Precip Events Conditions
12:54 AM 32.0 °F 30.0 °F 92% 30.02 in 5.0 mi Calm Calm - N/A   Clear
1:54 AM 33.1 °F 30.9 °F 92% 30.04 in 6.0 mi Calm Calm - N/A   Clear
2:54 AM 34.0 °F 30.9 °F 89% 30.05 in 6.0 mi Calm Calm - N/A   Clear
3:54 AM 34.0 °F 30.9 °F 89% 30.05 in 6.0 mi Calm Calm - N/A   Clear
4:54 AM 34.0 °F 30.9 °F 89% 30.08 in 6.0 mi Calm Calm - N/A   Clear
5:54 AM 33.1 °F 30.9 °F 92% 30.09 in 4.0 mi Calm Calm - N/A   Partly Cloudy
6:54 AM 32.0 °F 30.9 °F 96% 30.08 in 4.0 mi Calm Calm - N/A   Clear
7:54 AM 34.0 °F 32.0 °F 92% 30.09 in 3.0 mi Calm Calm - N/A   Clear
8:54 AM 39.9 °F 35.1 °F 83% 30.09 in 5.0 mi Calm Calm - N/A   Haze
9:54 AM 46.9 °F 37.0 °F 68% 30.11 in 7.0 mi Calm Calm - N/A   Overcast
10:54 AM 48.0 °F 37.9 °F 68% 30.12 in 6.0 mi Calm Calm - N/A   Haze
11:54 AM 50.0 °F 37.9 °F 63% 30.11 in 7.0 mi North 4.6 mph - N/A   Overcast
12:54 PM 51.1 °F 37.9 °F 61% 30.09 in 7.0 mi NNE 3.5 mph - N/A   Overcast
1:54 PM 51.1 °F 39.0 °F 63% 30.07 in 7.0 mi Calm Calm - N/A   Overcast
2:54 PM 53.1 °F 39.9 °F 61% 30.05 in 8.0 mi NE 3.5 mph - N/A   Scattered Clouds
3:54 PM 51.1 °F 39.9 °F 66% 30.07 in 7.0 mi North 4.6 mph - N/A   Partly Cloudy
4:54 PM 50.0 °F 41.0 °F 71% 30.09 in 8.0 mi Calm Calm - N/A   Overcast
5:54 PM 50.0 °F 41.0 °F 71% 30.10 in 8.0 mi Calm Calm - N/A   Overcast
6:54 PM 50.0 °F 41.0 °F 71% 30.12 in 9.0 mi East 3.5 mph - N/A   Overcast
7:10 PM 50.0 °F 42.1 °F 74% 30.12 in 9.0 mi East 4.6 mph - N/A   Overcast
7:54 PM 50.0 °F 44.1 °F 80% 30.12 in 7.0 mi East 3.5 mph - N/A   Overcast
8:54 PM 50.0 °F 45.0 °F 83% 30.11 in 7.0 mi ENE 3.5 mph - N/A   Overcast
9:15 PM 50.0 °F 45.0 °F 83% 30.11 in 7.0 mi ENE 3.5 mph - N/A   Overcast
9:54 PM 48.9 °F 45.0 °F 86% 30.10 in 7.0 mi Calm Calm - N/A   Overcast
10:08 PM 48.9 °F 45.0 °F 86% 30.10 in 7.0 mi Calm Calm - N/A   Overcast
10:16 PM 48.9 °F 45.0 °F 86% 30.09 in 7.0 mi NE 3.5 mph - N/A   Overcast
10:54 PM 48.0 °F 45.0 °F 89% 30.11 in 7.0 mi Variable 3.5 mph - N/A   Overcast
11:09 PM 48.9 °F 45.0 °F 86% 30.11 in 7.0 mi Calm Calm - N/A   Overcast
11:24 PM 48.9 °F 45.0 °F 86% 30.11 in 7.0 mi Calm Calm - N/A   Overcast